Retour au catalogue

STARLINK-38198

ActifCommunicationsSSO
NORAD 100160·PAYLOAD·🇺🇸 United States

Lancé Jul 25, 2026 depuis Vandenberg Space Force Base

Loading…

Prochains Passages (prochaines 24 heures)

TLE

FraisSource: Space-Track

Époque: Sep 14, 2026, 18:06 UTC

1 A0160U 26171N   26257.75484302  .00000258  00000-0  10321-4 0  9995
2 A0160  97.2838 290.2492 0002169  91.9920 268.1571 15.33459158  8015

Suivez STARLINK-38198 en temps réel avec AllMySat

Download on the App Store